Kingshill, VI

9:17 AM AST on January 22, 2017 (GMT -0400)
Henry E Rohlsen

Weather History for TISX - January, 2017

Change the Weather History Date:

Wednesday, January 11, 2017

  Actual Average Record
Temperature  
Mean Temperature 78 °F 78 °F  
Max Temperature 83 °F 84 °F 87 °F (1963)
Min Temperature 72 °F 72 °F 61 °F (1979)
Degree Days  
Heating Degree Days 0 0  
Month to date heating degree days 0 0  
Since 1 July heating degree days 0 0  
Cooling Degree Days 13 13  
Month to date cooling degree days 156 143  
Year to date cooling degree days 156 143  
Growing Degree Days 27 (Base 50)    
Moisture  
Dew Point 67 °F    
Average Humidity 79    
Maximum Humidity 93    
Minimum Humidity 64    
Precipitation  
Precipitation 0.07 in 0.07 in 0.44 in (2006)
Month to date precipitation 0.36 0.83  
Year to date precipitation 0.36 0.83  
Sea Level Pressure  
Sea Level Pressure 30.01 in    
Wind  
Wind Speed 10 mph (NNE)    
Max Wind Speed 22 mph    
Max Gust Speed 29 mph    
Visibility 10 miles    
Events Rain    
T = Trace of Precipitation, MM = Missing Value Source: NWS Daily Summary

Daily Weather History Graph

Daily Weather History Graph

Search for Another Location

Airport or City:

Trip Planner

Search our weather history database for the weather conditions in past years. The results will help you decide how hot, cold, wet, or windy it might be!

Date:

Astronomy

Jan. 11, 2017 Rise Set
Actual Time 6:52 AM AST 6:02 PM AST
Civil Twilight 6:29 AM AST 6:25 PM AST
Nautical Twilight 6:02 AM AST 6:52 PM AST
Astronomical Twilight 5:35 AM AST 7:18 PM AST
Moon 5:27 PM AST (1/11) 5:47 AM AST (1/11)
Length of Visible Light 11h 56m
Length of Day
11h 09m
Waxing Gibbous, 99% of the Moon is Illuminated
Jan 11
Waxing Gibbous
Jan 12
Full
Jan 19
Last Quarter
Jan 27
New
Feb 4
First Quarter

Hourly Weather History & Observations

Time (AST) Temp. Heat Index Dew Point Humidity Pressure Visibility Wind Dir Wind Speed Gust Speed Precip Events Conditions
12:53 AM 73.0 °F - 68.0 °F 84% 29.99 in 10.0 mi NE 4.6 mph - N/A   Clear
1:53 AM 73.9 °F - 68.0 °F 82% 29.98 in 10.0 mi NNE 4.6 mph - N/A   Partly Cloudy
2:53 AM 73.9 °F - 70.0 °F 87% 29.96 in 8.0 mi NE 5.8 mph - 0.00 in Rain Light Rain
3:53 AM 73.9 °F - 69.1 °F 85% 29.95 in 10.0 mi NNE 4.6 mph - 0.00 in   Partly Cloudy
4:53 AM 73.0 °F - 70.0 °F 90% 29.96 in 6.0 mi NE 5.8 mph - 0.07 in Rain Rain
5:53 AM 72.0 °F - 69.1 °F 91% 29.97 in 10.0 mi NNE 8.1 mph - 0.00 in   Partly Cloudy
6:53 AM 72.0 °F - 69.1 °F 91% 29.99 in 10.0 mi North 5.8 mph - N/A   Partly Cloudy
7:53 AM 75.0 °F - 70.0 °F 84% 30.02 in 10.0 mi NE 8.1 mph - N/A   Partly Cloudy
8:53 AM 77.0 °F - 70.0 °F 79% 30.04 in 10.0 mi NE 8.1 mph - N/A   Scattered Clouds
9:53 AM 80.1 °F 82.9 °F 69.1 °F 69% 30.06 in 10.0 mi NE 9.2 mph 19.6 mph N/A   Partly Cloudy
10:53 AM 82.0 °F 85.5 °F 69.1 °F 65% 30.05 in 10.0 mi NNE 11.5 mph - N/A   Scattered Clouds
11:53 AM 80.1 °F 82.7 °F 68.0 °F 67% 30.02 in 10.0 mi NE 16.1 mph 21.9 mph N/A   Scattered Clouds
12:53 PM 81.0 °F 84.1 °F 69.1 °F 67% 30.01 in 10.0 mi NE 15.0 mph 21.9 mph 0.00 in   Mostly Cloudy
1:53 PM 82.0 °F 85.5 °F 69.1 °F 65% 29.99 in 10.0 mi NNE 15.0 mph 25.3 mph N/A   Scattered Clouds
2:53 PM 82.0 °F 85.5 °F 69.1 °F 65% 29.98 in 10.0 mi NNE 17.3 mph 27.6 mph 0.00 in   Scattered Clouds
3:53 PM 81.0 °F 83.8 °F 68.0 °F 65% 29.98 in 8.0 mi NNE 13.8 mph 23.0 mph N/A   Scattered Clouds
4:53 PM 79.0 °F - 66.9 °F 66% 29.99 in 10.0 mi NNE 15.0 mph 24.2 mph N/A   Scattered Clouds
5:53 PM 77.0 °F - 66.9 °F 71% 30.00 in 10.0 mi NNE 11.5 mph 19.6 mph N/A   Scattered Clouds
6:53 PM 75.9 °F - 64.9 °F 69% 30.02 in 10.0 mi NNE 10.4 mph 19.6 mph N/A   Scattered Clouds
7:53 PM 75.9 °F - 64.0 °F 67% 30.03 in 10.0 mi NNE 11.5 mph 19.6 mph N/A   Scattered Clouds
8:53 PM 75.9 °F - 64.0 °F 67% 30.04 in 10.0 mi NNE 11.5 mph - N/A   Partly Cloudy
9:53 PM 75.9 °F - 64.0 °F 67% 30.05 in 10.0 mi NNE 10.4 mph 23.0 mph N/A   Partly Cloudy
10:53 PM 75.9 °F - 63.0 °F 64% 30.05 in 10.0 mi NNE 13.8 mph 20.7 mph N/A   Scattered Clouds
11:53 PM 75.9 °F - 61.0 °F 60% 30.04 in 10.0 mi NNE 11.5 mph 20.7 mph N/A   Clear